User: anonymous   Login
Location: Unspecified
(0.0000°N, 0.0000°E)
Time: 10:18:26
(UTC+00:00)
Language:

COSMOS 2490 - Orbit

View from above orbital plane
View from above orbital plane
View from above satellite
View from above satellite

Ground track
Ground track

The orbit data is extracted from the following two-line orbital elements,

1 39485U 13076C   17080.86096967 +.00000010 +00000-0 +00000-0 0  9994
2 39485 082.4799 111.5061 0020117 265.8982 093.9800 12.42881701146910
Epoch (UTC): 21 March 2017 20:39:47
Eccentricity: 0.0020117
inclination: 82.4799°
perigee height: 1478 km
apogee height: 1510 km
right ascension of ascending node: 111.5061°
argument of perigee: 265.8982°
revolutions per day: 12.42881701
mean anomaly at epoch: 93.9800°
orbit number at epoch: 14691

The dashed part of the orbit path shows where the satellite is in the earth's shadow,  

DLR